QPF
0.00 0.00 0.00 0.00 0.01 0.02 0.01 0.00 0.00 0.00 0.01 0.01 0.00 0.01 0.01 0.00 0.01 0.01 0.02 0.03 0.03 0.04 0.07 0.05 0.05 0.06 0.08 0.01 0.02 0.00 0.00 0.00 0.00 0.00 0.00 0.00 0.00 0.00 0.00 0.00 0.00 0.00 0.00 0.00 0.00 0.00 0.00
0.01 0.00 0.00 0.00 0.01 0.03 0.01 0.00 0.00 0.00 0.01 0.01 0.00 0.00 0.00 0.00 0.03 0.06 0.06 0.06 0.09 0.07 0.07 0.05 0.05 0.02 0.02 0.01 0.01 0.00 0.00 0.00 0.00 0.00 0.00 0.00 0.00 0.00 0.00 0.00 0.00 0.00 0.00 0.00 0.00 0.00 0.00
0.01 0.00 0.00 0.00 0.01 0.02 0.01 0.00 0.00 0.00 0.00 0.01 0.00 0.01 0.00 0.00 0.00 0.04 0.04 0.08 0.11 0.11 0.07 0.07 0.02 0.01 0.01 0.02 0.01 0.00 0.00 0.00 0.00 0.00 0.00 0.00 0.00 0.00 0.00 0.00 0.00 0.00 0.00 0.00 0.00 0.00 0.00
0.00 0.01 0.00 0.00 0.00 0.01 0.00 0.00 0.00 0.00 0.00 0.00 0.00 0.00 0.00 0.00 0.01 0.01 0.03 0.07 0.04 0.01 0.00 0.02 0.04 0.01 0.01 0.02 0.00 0.00 0.00 0.00 0.00 0.00 0.00 0.00 0.00 0.00 0.00 0.00 0.00 0.00 0.00 0.00 0.00 0.00 0.00
0.00 0.01 0.00 0.01 0.01 0.01 0.01 0.00 0.00 0.00 0.00 0.00 0.00 0.00 0.00 0.00 0.01 0.03 0.03 0.01 0.00 0.00 0.00 0.02 0.01 0.00 0.01 0.01 0.00 0.00 0.00 0.00 0.00 0.00 0.00 0.00 0.00 0.00 0.00 0.00 0.00 0.00 0.00 0.00 0.00 0.00 0.00
0.00 0.00 0.01 0.01 0.00 0.01 0.01 0.00 0.00 0.00 0.00 0.00 0.00 0.00 0.00 0.00 0.01 0.00 0.00 0.00 0.00 0.00 0.00 0.00 0.00 0.00 0.00 0.00 0.00 0.00 0.00 0.00 0.00 0.00 0.00 0.00 0.00 0.00 0.00 0.00 0.00 0.00 0.00 0.00 0.00 0.00 0.00
0.00 0.00 0.01 0.01 0.01 0.01 0.00 0.01 0.00 0.00 0.00 0.00 0.00 0.00 0.00 0.00 0.00 0.00 0.00 0.00 0.00 0.00 0.00 0.00 0.00 0.00 0.00 0.00 0.00 0.00 0.00 0.00 0.00 0.00 0.00 0.00 0.00 0.00 0.00 0.00 0.00 0.00 0.00 0.00 0.00 0.00 0.00
0.00 0.00 0.00 0.00 0.01 0.01 0.01 0.00 0.00 0.00 0.00 0.00 0.00 0.00 0.00 0.00 0.00 0.00 0.00 0.00 0.00 0.00 0.00 0.00 0.00 0.00 0.00 0.00 0.00 0.00 0.00 0.00 0.00 0.00 0.00 0.00 0.00 0.00 0.00 0.00 0.00 0.00 0.00 0.00 0.00 0.00 0.00
0.00 0.00 0.00 0.00 0.00 0.01 0.00 0.00 0.00 0.00 0.00 0.00 0.00 0.00 0.00 0.00 0.00 0.00 0.00 0.00 0.00 0.00 0.00 0.00 0.00 0.00 0.00 0.00 0.00 0.00 0.00 0.00 0.00 0.00 0.00 0.00 0.00 0.00 0.00 0.00 0.00 0.00 0.00 0.00 0.00 0.00 0.00
0.00 0.00 0.00 0.00 0.00 0.00 0.00 0.00 0.00 0.00 0.00 0.00 0.00 0.00 0.00 0.00 0.00 0.00 0.00 0.00 0.00 0.00 0.00 0.00 0.00 0.00 0.00 0.00 0.00 0.00 0.00 0.00 0.00 0.00 0.00 0.00 0.00 0.00 0.00 0.00 0.00 0.00 0.00 0.00 0.00 0.00 0.00
0.00 0.00 0.00 0.00 0.00 0.00 0.00 0.00 0.00 0.00 0.00 0.00 0.00 0.00 0.00 0.00 0.00 0.00 0.00 0.00 0.00 0.00 0.00 0.00 0.00 0.00 0.00 0.00 0.00 0.00 0.00 0.00 0.00 0.00 0.00 0.00 0.00 0.00 0.00 0.00 0.00 0.00 0.00 0.00 0.00 0.00 0.00
0.00 0.00 0.00 0.00 0.00 0.00 0.00 0.00 0.00 0.00 0.00 0.00 0.00 0.00 0.00 0.00 0.00 0.00 0.00 0.00 0.00 0.00 0.00 0.00 0.00 0.00 0.00 0.00 0.00 0.00 0.00 0.00 0.00 0.00 0.00 0.00 0.00 0.00 0.00 0.00 0.00 0.00 0.00 0.00 0.00 0.00 0.00
0.00 0.00 0.00 0.00 0.00 0.00 0.00 0.00 0.00 0.00 0.00 0.00 0.00 0.00 0.00 0.00 0.00 0.00 0.00 0.00 0.00 0.00 0.00 0.00 0.00 0.00 0.00 0.00 0.00 0.00 0.00 0.00 0.00 0.00 0.00 0.00 0.00 0.00 0.00 0.00 0.00 0.00 0.00 0.00 0.00 0.00 0.00
0.00 0.00 0.00 0.00 0.00 0.00 0.00 0.00 0.00 0.00 0.00 0.00 0.00 0.00 0.00 0.00 0.00 0.00 0.00 0.00 0.00 0.00 0.00 0.00 0.00 0.00 0.00 0.00 0.00 0.00 0.00 0.00 0.00 0.00 0.00 0.00 0.00 0.00 0.00 0.00 0.00 0.00 0.00 0.00 0.00 0.00 0.00
0.00 0.00 0.00 0.00 0.00 0.00 0.00 0.00 0.00 0.00 0.00 0.00 0.00 0.00 0.00 0.00 0.00 0.00 0.00 0.00 0.00 0.00 0.00 0.00 0.00 0.00 0.00 0.00 0.00 0.00 0.00 0.00 0.00 0.00 0.00 0.00 0.00 0.00 0.00 0.00 0.00 0.00 0.00 0.00 0.00 0.00 0.00
0.00 0.00 0.00 0.00 0.00 0.00 0.00 0.00 0.00 0.00 0.00 0.00 0.00 0.00 0.00 0.00 0.00 0.00 0.00 0.00 0.00 0.00 0.00 0.00 0.00 0.00 0.00 0.00 0.00 0.00 0.00 0.00 0.00 0.00 0.00 0.00 0.00 0.00 0.00 0.00 0.00 0.00 0.00 0.00 0.00 0.00 0.00
0.00 0.00 0.00 0.00 0.00 0.00 0.00 0.00 0.00 0.00 0.00 0.00 0.00 0.00 0.00 0.00 0.00 0.00 0.00 0.00 0.00 0.00 0.00 0.00 0.00 0.00 0.00 0.00 0.00 0.00 0.00 0.00 0.00 0.00 0.00 0.00 0.00 0.00 0.00 0.00 0.00 0.00 0.00 0.00 0.00 0.00 0.00
0.00 0.00 0.00 0.00 0.00 0.00 0.00 0.00 0.00 0.00 0.00 0.00 0.00 0.00 0.00 0.00 0.00 0.00 0.00 0.00 0.00 0.00 0.00 0.00 0.00 0.00 0.00 0.00 0.00 0.00 0.00 0.00 0.00 0.00 0.00 0.00 0.00 0.00 0.00 0.00 0.00 0.00 0.00 0.00 0.00 0.00 0.00
0.00 0.00 0.00 0.00 0.00 0.00 0.00 0.00 0.00 0.00 0.00 0.00 0.00 0.00 0.00 0.00 0.00 0.00 0.00 0.00 0.00 0.00 0.00 0.00 0.00 0.00 0.00 0.00 0.00 0.00 0.00 0.00 0.00 0.00 0.00 0.00 0.00 0.00 0.00 0.00 0.00 0.00 0.00 0.00 0.00 0.00 0.00
0.00 0.00 0.00 0.00 0.00 0.00 0.00 0.00 0.00 0.00 0.00 0.00 0.00 0.00 0.00 0.00 0.00 0.00 0.00 0.00 0.00 0.00 0.00 0.00 0.00 0.00 0.00 0.00 0.00 0.00 0.00 0.00 0.00 0.00 0.00 0.00 0.00 0.00 0.00 0.00 0.00 0.00 0.00 0.00 0.00 0.00 0.00
0.00 0.00 0.00 0.00 0.00 0.00 0.00 0.00 0.00 0.00 0.00 0.00 0.00 0.00 0.00 0.00 0.00 0.00 0.00 0.00 0.00 0.00 0.00 0.00 0.00 0.00 0.00 0.00 0.00 0.00 0.00 0.00 0.00 0.00 0.00 0.00 0.00 0.00 0.00 0.00 0.00 0.00 0.00 0.00 0.00 0.00 0.00
0.00 0.00 0.00 0.00 0.00 0.00 0.00 0.00 0.00 0.00 0.00 0.00 0.00 0.00 0.00 0.00 0.00 0.00 0.00 0.00 0.00 0.00 0.00 0.00 0.00 0.00 0.00 0.00 0.00 0.00 0.00 0.00 0.00 0.00 0.00 0.00 0.00 0.00 0.00 0.00 0.00 0.00 0.00 0.00 0.00 0.00 0.00
0.00 0.00 0.00 0.00 0.00 0.00 0.00 0.00 0.00 0.00 0.00 0.00 0.00 0.00 0.00 0.00 0.00 0.00 0.00 0.00 0.00 0.00 0.00 0.00 0.00 0.00 0.00 0.00 0.00 0.00 0.00 0.00 0.00 0.00 0.00 0.00 0.00 0.00 0.00 0.00 0.00 0.00 0.00 0.00 0.00 0.00 0.00
0.00 0.00 0.00 0.00 0.00 0.00 0.00 0.00 0.00 0.00 0.00 0.00 0.00 0.00 0.00 0.00 0.00 0.00 0.00 0.00 0.00 0.00 0.00 0.00 0.00 0.00 0.00 0.00 0.00 0.00 0.00 0.00 0.00 0.00 0.00 0.00 0.00 0.00 0.00 0.00 0.00 0.00 0.00 0.00 0.00 0.00 0.00
0.00 0.00 0.00 0.00 0.00 0.00 0.00 0.00 0.00 0.00 0.00 0.00 0.00 0.00 0.00 0.00 0.00 0.00 0.00 0.00 0.00 0.00 0.00 0.00 0.00 0.00 0.00 0.00 0.00 0.00 0.00 0.00 0.00 0.00 0.00 0.00 0.00 0.00 0.00 0.00 0.00 0.00 0.00 0.00 0.00 0.00 0.00
0.00 0.00 0.00 0.00 0.00 0.00 0.00 0.00 0.00 0.00 0.00 0.00 0.00 0.00 0.00 0.00 0.00 0.00 0.00 0.00 0.00 0.00 0.00 0.00 0.00 0.00 0.00 0.00 0.00 0.00 0.00 0.00 0.00 0.00 0.00 0.00 0.00 0.00 0.00 0.00 0.00 0.00 0.00 0.00 0.00 0.00 0.00
0.00 0.00 0.00 0.00 0.00 0.00 0.00 0.00 0.00 0.00 0.00 0.00 0.00 0.00 0.00 0.00 0.00 0.00 0.00 0.00 0.00 0.00 0.00 0.00 0.00 0.00 0.00 0.00 0.00 0.00 0.00 0.00 0.00 0.00 0.00 0.00 0.00 0.00 0.00 0.00 0.00 0.00 0.00 0.00 0.00 0.00 0.00
0.00 0.00 0.00 0.00 0.00 0.00 0.00 0.00 0.00 0.00 0.00 0.00 0.00 0.00 0.00 0.00 0.00 0.00 0.00 0.00 0.00 0.00 0.00 0.00 0.00 0.00 0.00 0.00 0.00 0.00 0.00 0.00 0.00 0.00 0.00 0.00 0.00 0.00 0.00 0.00 0.00 0.00 0.00 0.00 0.00 0.00 0.00
0.00 0.00 0.00 0.00 0.00 0.00 0.00 0.00 0.00 0.00 0.00 0.00 0.00 0.00 0.00 0.00 0.00 0.00 0.00 0.00 0.00 0.00 0.00 0.00 0.00 0.00 0.00 0.00 0.00 0.00 0.00 0.00 0.00 0.00 0.00 0.00 0.00 0.00 0.00 0.00 0.00 0.00 0.00 0.00 0.00 0.00 0.00
MSLP
1019.96 1019.58 1019.15 1018.69 1018.30 1017.86 1017.57 1017.24 1016.93 1016.50 1016.00 1015.73 1015.41 1014.99 1014.56 1014.10 1013.68 1013.31 1013.34 1013.58 1013.61 1013.69 1013.55 1013.30 1013.00 1013.16 1013.96 1015.03 1015.88 1015.81 1014.73 1014.14 1013.71 1013.68 1014.10 1014.38 1014.71 1015.44 1016.61 1017.33 1017.84 1018.40 1019.12 1019.33 1019.59 1019.50 1019.65
1019.85 1019.58 1019.10 1018.62 1018.23 1017.90 1017.65 1017.45 1017.21 1016.75 1016.34 1015.99 1015.68 1015.38 1014.97 1014.55 1014.09 1013.71 1013.51 1013.57 1013.73 1013.71 1013.47 1013.29 1013.18 1013.26 1014.01 1015.45 1015.81 1015.76 1015.14 1013.99 1013.83 1013.70 1014.13 1014.41 1014.73 1015.24 1016.69 1017.87 1018.28 1018.88 1019.24 1019.80 1020.04 1020.04 1020.14
1020.02 1019.75 1019.25 1018.70 1018.30 1017.96 1017.85 1017.64 1017.40 1016.92 1016.65 1016.30 1015.93 1015.55 1015.27 1014.87 1014.57 1014.23 1013.98 1013.82 1013.70 1013.37 1013.20 1013.18 1013.29 1013.48 1014.95 1016.03 1016.01 1015.77 1015.00 1014.39 1014.01 1013.83 1014.28 1014.61 1014.72 1015.30 1016.78 1018.13 1019.01 1019.22 1019.89 1020.17 1020.53 1020.41 1020.58
1020.28 1019.89 1019.41 1018.84 1018.39 1017.98 1017.80 1017.73 1017.54 1017.17 1016.83 1016.54 1016.08 1015.73 1015.47 1015.14 1014.93 1014.64 1014.34 1014.06 1013.89 1013.58 1013.51 1013.59 1013.66 1013.69 1015.35 1016.29 1016.48 1015.90 1015.36 1014.45 1014.01 1013.84 1014.33 1014.88 1014.98 1016.09 1017.38 1018.37 1019.18 1019.85 1020.23 1020.74 1021.02 1020.68 1020.65
1020.43 1020.02 1019.55 1018.97 1018.48 1018.07 1017.73 1017.73 1017.63 1017.39 1017.08 1016.73 1016.42 1016.04 1015.80 1015.52 1015.28 1015.14 1014.89 1014.55 1014.07 1013.54 1013.73 1014.03 1014.13 1014.70 1016.02 1016.45 1016.33 1016.16 1015.91 1015.50 1014.76 1014.48 1014.74 1015.10 1015.63 1017.49 1018.30 1018.93 1020.26 1020.87 1021.05 1021.18 1021.38 1021.05 1020.91
1020.53 1020.16 1019.69 1019.16 1018.64 1018.16 1017.86 1017.74 1017.67 1017.50 1017.32 1017.07 1016.77 1016.39 1016.19 1015.94 1015.57 1015.40 1015.13 1014.94 1014.65 1013.93 1013.73 1014.40 1015.22 1015.76 1016.76 1017.17 1017.45 1016.53 1015.95 1015.69 1015.00 1014.92 1015.52 1016.15 1017.33 1018.43 1019.43 1019.66 1020.48 1021.04 1021.50 1021.61 1021.58 1021.64 1021.19
1020.67 1020.30 1019.91 1019.41 1018.83 1018.29 1018.01 1017.85 1017.76 1017.64 1017.53 1017.42 1017.11 1016.94 1016.72 1016.46 1015.95 1015.49 1015.43 1015.55 1015.95 1016.42 1016.22 1016.49 1017.25 1017.10 1017.19 1017.32 1017.06 1016.88 1016.42 1015.75 1015.20 1015.90 1017.39 1018.01 1018.80 1019.96 1020.45 1020.13 1020.17 1020.48 1021.13 1021.70 1021.99 1021.88 1021.76
1020.85 1020.51 1020.11 1019.71 1019.09 1018.53 1018.14 1017.98 1017.91 1017.81 1017.73 1017.66 1017.34 1017.14 1016.71 1016.50 1016.12 1015.69 1015.74 1017.11 1018.36 1018.54 1018.40 1018.01 1017.81 1017.16 1016.97 1017.09 1017.34 1017.43 1016.91 1016.18 1016.32 1017.70 1018.23 1019.16 1020.39 1020.92 1020.69 1020.41 1020.45 1020.81 1021.59 1022.35 1022.40 1022.23 1022.31
1020.99 1020.69 1020.28 1019.87 1019.49 1018.88 1018.39 1018.14 1018.09 1018.02 1017.93 1017.78 1017.58 1017.21 1016.91 1016.67 1016.54 1016.50 1017.42 1018.08 1018.17 1018.11 1018.55 1019.29 1018.85 1018.89 1018.84 1018.42 1018.19 1017.90 1017.38 1017.21 1017.70 1018.57 1019.18 1020.09 1021.29 1020.95 1020.74 1020.92 1021.04 1022.13 1022.23 1022.69 1022.88 1022.79 1022.96
1021.23 1020.85 1020.46 1020.09 1019.74 1019.24 1018.73 1018.35 1018.28 1018.27 1018.26 1018.03 1017.77 1017.49 1017.01 1016.72 1017.17 1017.84 1018.12 1018.14 1018.00 1018.02 1018.78 1020.47 1019.58 1019.52 1019.16 1018.50 1018.62 1017.97 1017.82 1018.09 1018.44 1019.49 1020.05 1021.13 1021.42 1021.20 1021.14 1021.48 1021.67 1022.46 1022.67 1022.93 1023.26 1023.50 1023.85
1021.35 1021.01 1020.61 1020.23 1019.93 1019.53 1018.96 1018.59 1018.34 1018.38 1018.33 1018.26 1018.00 1017.78 1017.58 1016.99 1017.67 1017.97 1018.07 1018.08 1018.09 1018.06 1019.33 1020.61 1019.80 1019.51 1018.75 1018.58 1018.83 1017.94 1017.73 1017.69 1018.89 1019.81 1020.34 1022.28 1021.93 1021.70 1021.70 1022.06 1021.92 1022.91 1023.02 1023.49 1023.88 1024.15 1024.37
1021.47 1021.09 1020.70 1020.30 1020.04 1019.63 1019.19 1018.79 1018.48 1018.32 1018.38 1018.32 1018.15 1017.91 1017.73 1017.88 1018.06 1018.12 1017.95 1017.90 1018.05 1018.77 1020.80 1020.58 1019.99 1019.49 1018.99 1018.66 1018.60 1018.37 1018.17 1018.33 1019.24 1020.22 1021.09 1022.13 1022.00 1022.01 1022.15 1022.28 1022.17 1022.78 1023.44 1024.18 1024.55 1024.72 1025.04
1021.48 1021.21 1020.80 1020.39 1020.09 1019.75 1019.36 1018.97 1018.62 1018.29 1018.13 1018.26 1018.22 1018.01 1017.95 1018.10 1018.40 1018.12 1018.10 1018.11 1018.57 1019.85 1021.88 1021.40 1020.35 1019.56 1018.82 1019.03 1018.80 1018.81 1019.14 1019.46 1020.05 1021.15 1022.39 1022.67 1022.81 1022.41 1022.07 1022.37 1022.74 1023.04 1023.92 1024.87 1025.38 1025.50 1025.41
1021.47 1021.22 1020.85 1020.44 1020.18 1019.83 1019.44 1019.07 1018.73 1018.35 1018.08 1017.95 1018.06 1018.06 1018.31 1018.44 1018.42 1018.11 1018.30 1018.59 1019.61 1021.05 1020.53 1020.40 1019.55 1019.02 1019.12 1019.21 1019.37 1019.42 1019.59 1020.13 1020.45 1021.02 1022.92 1023.42 1023.73 1022.78 1022.37 1022.47 1022.78 1023.57 1024.00 1024.79 1025.71 1026.22 1025.75
1021.56 1021.25 1020.95 1020.57 1020.21 1019.91 1019.54 1019.13 1018.74 1018.41 1018.13 1018.05 1018.04 1018.42 1018.58 1018.61 1018.33 1018.27 1018.56 1019.39 1020.82 1020.72 1020.38 1019.89 1019.57 1019.72 1019.86 1019.45 1019.32 1019.57 1020.07 1020.53 1020.71 1020.87 1021.70 1022.99 1023.38 1022.87 1022.53 1022.34 1022.78 1023.63 1024.20 1024.78 1025.48 1026.40 1025.90
1021.63 1021.28 1021.02 1020.65 1020.32 1019.92 1019.54 1019.15 1018.73 1018.32 1018.10 1018.17 1018.68 1018.83 1018.76 1018.48 1018.31 1018.38 1018.68 1020.22 1020.43 1020.07 1019.72 1019.38 1019.05 1018.95 1019.40 1019.53 1019.73 1019.75 1020.09 1020.37 1020.53 1020.68 1020.94 1022.21 1023.02 1022.85 1022.55 1022.37 1022.85 1023.13 1024.05 1024.74 1025.29 1025.85 1025.49
1021.65 1021.29 1021.00 1020.71 1020.37 1020.05 1019.56 1019.12 1018.72 1018.29 1018.18 1018.44 1018.94 1019.02 1018.52 1018.38 1018.34 1018.61 1020.19 1020.26 1019.87 1019.54 1019.38 1019.21 1019.02 1019.10 1019.31 1019.39 1019.57 1019.87 1020.23 1020.32 1020.29 1020.57 1020.71 1021.45 1022.08 1023.24 1022.81 1022.83 1023.02 1023.68 1024.02 1024.70 1025.20 1025.51 1025.34
1021.58 1021.26 1021.02 1020.75 1020.41 1020.11 1019.66 1019.21 1018.81 1018.57 1018.55 1018.80 1019.10 1019.41 1018.85 1018.66 1019.06 1020.54 1020.78 1020.00 1019.14 1019.01 1018.83 1018.65 1018.45 1018.70 1019.23 1019.68 1020.10 1020.09 1020.23 1020.12 1020.06 1020.27 1020.90 1021.32 1022.17 1023.22 1023.21 1023.03 1023.02 1023.29 1023.76 1024.25 1024.87 1025.66 1025.44
1021.48 1021.21 1020.97 1020.77 1020.42 1020.05 1019.66 1019.23 1018.81 1018.43 1018.45 1019.07 1019.50 1019.47 1019.02 1019.04 1020.14 1021.02 1020.34 1019.72 1019.21 1018.87 1018.71 1018.62 1018.62 1018.68 1018.98 1019.42 1019.94 1020.17 1020.19 1020.24 1020.25 1020.39 1020.75 1021.16 1022.23 1023.29 1023.67 1023.69 1023.52 1023.59 1023.77 1024.05 1024.52 1024.83 1024.85
1021.43 1021.18 1020.96 1020.78 1020.40 1020.04 1019.59 1019.13 1018.50 1017.88 1017.98 1018.81 1019.75 1020.03 1019.69 1019.74 1020.20 1019.94 1020.03 1019.90 1019.39 1018.89 1018.74 1018.61 1018.67 1018.61 1018.92 1019.46 1019.75 1020.32 1020.57 1020.67 1020.67 1020.84 1020.98 1021.27 1022.32 1022.76 1022.97 1022.69 1022.80 1023.46 1023.46 1023.77 1023.96 1024.72 1024.23
1021.43 1021.24 1021.02 1020.83 1020.50 1020.06 1019.67 1019.18 1018.55 1017.86 1018.18 1018.85 1019.96 1020.99 1020.90 1020.75 1020.55 1020.12 1019.53 1019.06 1019.15 1019.03 1018.88 1018.81 1019.08 1019.14 1019.31 1019.84 1020.27 1020.71 1020.94 1021.11 1021.23 1021.35 1021.60 1022.09 1022.93 1023.33 1023.11 1022.97 1022.96 1022.97 1023.14 1023.46 1023.52 1023.09 1022.94
1021.36 1021.23 1021.10 1020.87 1020.59 1020.24 1019.84 1019.41 1018.89 1018.55 1018.69 1019.42 1020.43 1020.73 1020.84 1020.76 1020.52 1020.25 1019.78 1019.39 1018.97 1018.88 1018.73 1018.97 1019.21 1019.50 1019.63 1020.01 1020.29 1020.79 1021.20 1021.64 1021.79 1022.21 1022.50 1023.00 1023.61 1023.92 1023.64 1023.21 1023.16 1022.92 1022.58 1022.74 1022.71 1022.56 1022.03
1021.22 1021.17 1021.05 1020.96 1020.69 1020.40 1020.04 1019.62 1019.15 1018.78 1018.96 1019.65 1020.60 1020.47 1020.29 1021.04 1020.73 1020.44 1019.90 1019.46 1019.20 1019.03 1019.12 1019.07 1019.25 1019.57 1019.97 1020.35 1020.66 1021.13 1021.31 1021.66 1021.86 1022.44 1023.16 1023.57 1024.01 1024.46 1023.98 1023.42 1022.73 1022.08 1020.92 1021.21 1021.33 1021.07 1020.85
1021.05 1021.06 1020.97 1020.89 1020.73 1020.52 1020.25 1019.86 1019.43 1019.01 1019.01 1019.63 1020.42 1020.57 1020.61 1021.02 1020.87 1020.27 1019.71 1019.57 1019.65 1019.59 1019.49 1019.58 1019.63 1019.88 1020.60 1020.65 1021.00 1021.43 1021.97 1022.48 1022.73 1023.13 1023.23 1023.91 1024.33 1024.65 1024.61 1023.51 1022.19 1019.93 1019.73 1019.81 1020.01 1019.73 1019.79
1020.83 1020.84 1020.83 1020.80 1020.68 1020.53 1020.38 1020.10 1019.71 1019.33 1019.21 1019.79 1020.41 1020.53 1020.70 1020.85 1020.63 1020.20 1019.94 1019.67 1019.79 1019.97 1020.11 1020.13 1020.21 1020.53 1020.58 1020.99 1021.65 1022.16 1022.60 1022.93 1023.52 1023.73 1023.77 1023.89 1024.42 1025.13 1025.03 1024.19 1021.62 1019.62 1019.39 1019.34 1019.54 1019.19 1018.86
1020.67 1020.64 1020.64 1020.66 1020.62 1020.51 1020.42 1020.31 1019.95 1019.60 1019.47 1019.87 1020.59 1020.51 1020.61 1020.97 1020.59 1019.92 1019.92 1019.93 1020.20 1020.39 1020.70 1020.60 1020.67 1020.78 1020.93 1021.67 1022.17 1022.60 1022.90 1022.98 1023.72 1024.09 1024.25 1024.35 1024.41 1024.89 1025.15 1024.04 1021.60 1019.31 1018.60 1018.51 1018.69 1018.75 1018.48
1020.38 1020.49 1020.46 1020.50 1020.48 1020.46 1020.41 1020.35 1020.17 1019.81 1019.60 1019.85 1020.73 1020.76 1020.51 1020.80 1020.42 1020.12 1020.10 1020.22 1020.33 1020.65 1020.82 1020.94 1021.01 1021.23 1021.35 1022.13 1022.56 1022.93 1022.97 1022.99 1023.52 1023.87 1024.33 1024.70 1025.00 1024.97 1024.71 1023.58 1020.96 1018.81 1018.47 1018.55 1018.88 1019.07 1018.35
1020.01 1020.28 1020.35 1020.37 1020.33 1020.33 1020.34 1020.35 1020.30 1020.06 1019.72 1019.90 1020.66 1020.69 1020.72 1020.81 1020.45 1020.11 1020.07 1020.26 1020.52 1020.67 1020.95 1021.30 1021.56 1021.70 1022.14 1022.55 1022.88 1022.95 1023.03 1023.08 1023.30 1023.19 1023.35 1023.56 1024.03 1024.17 1024.15 1023.02 1020.54 1018.59 1018.60 1018.73 1018.76 1018.46 1018.39
1019.43 1019.86 1020.02 1020.14 1020.13 1020.19 1020.25 1020.27 1020.31 1020.25 1019.90 1019.78 1020.58 1020.67 1020.63 1020.75 1020.89 1020.72 1020.56 1020.53 1020.59 1020.51 1020.60 1021.24 1021.36 1021.30 1021.52 1022.31 1022.98 1022.98 1022.95 1023.10 1022.92 1023.07 1022.67 1022.60 1021.62 1021.76 1021.74 1020.21 1019.07 1018.64 1018.43 1018.56 1018.75 1018.89 1018.63
Thickness
5558 5549 5539 5529 5519 5509 5497 5484 5472 5463 5458 5453 5451 5449 5448 5448 5451 5452 5452 5452 5454 5459 5465 5472 5482 5490 5494 5497 5503 5510 5527 5543 5561 5577 5587 5598 5608 5612 5612 5615 5621 5623 5625 5628 5631 5636 5639
5559 5549 5539 5530 5519 5509 5497 5483 5473 5464 5457 5451 5447 5445 5441 5439 5446 5450 5452 5454 5455 5461 5466 5473 5479 5487 5487 5491 5498 5506 5518 5539 5553 5571 5581 5592 5601 5609 5605 5605 5613 5615 5618 5620 5623 5628 5630
5557 5547 5539 5530 5519 5509 5496 5484 5474 5465 5456 5450 5446 5444 5439 5439 5441 5446 5449 5454 5457 5462 5468 5475 5479 5483 5483 5488 5493 5501 5516 5533 5548 5565 5575 5585 5595 5605 5602 5600 5600 5608 5611 5614 5614 5620 5623
5556 5547 5539 5531 5520 5510 5500 5487 5477 5467 5458 5451 5447 5443 5439 5438 5441 5446 5449 5455 5460 5466 5471 5473 5477 5482 5474 5476 5480 5497 5510 5528 5543 5559 5570 5577 5589 5591 5593 5594 5594 5599 5602 5609 5608 5615 5618
5556 5548 5540 5533 5523 5513 5503 5491 5481 5472 5462 5453 5447 5444 5440 5441 5443 5448 5452 5456 5463 5473 5472 5470 5477 5476 5474 5475 5487 5496 5507 5519 5536 5552 5563 5575 5581 5576 5582 5584 5576 5581 5590 5602 5603 5608 5614
5557 5549 5543 5535 5526 5517 5507 5496 5485 5477 5467 5457 5450 5446 5443 5444 5446 5452 5456 5459 5464 5474 5479 5473 5470 5471 5469 5474 5475 5492 5507 5519 5536 5550 5557 5564 5560 5565 5564 5580 5581 5591 5585 5592 5600 5601 5609
5558 5552 5545 5537 5531 5522 5512 5501 5491 5483 5474 5464 5456 5449 5447 5446 5450 5458 5462 5461 5457 5455 5460 5459 5457 5464 5467 5473 5483 5494 5505 5520 5537 5540 5542 5540 5548 5545 5563 5577 5578 5579 5587 5588 5589 5596 5602
5559 5554 5548 5540 5534 5526 5517 5507 5496 5488 5480 5472 5466 5460 5457 5456 5458 5464 5468 5455 5444 5446 5447 5453 5459 5466 5471 5480 5487 5491 5504 5522 5532 5524 5535 5533 5530 5545 5557 5568 5576 5581 5583 5578 5587 5593 5597
5562 5556 5551 5544 5536 5530 5522 5514 5502 5493 5486 5480 5474 5470 5467 5464 5465 5466 5460 5456 5455 5456 5453 5448 5458 5461 5463 5475 5482 5494 5506 5514 5517 5517 5520 5524 5534 5547 5558 5560 5576 5561 5576 5579 5580 5586 5584
5563 5558 5554 5548 5541 5534 5528 5520 5510 5499 5491 5486 5482 5478 5476 5474 5470 5464 5461 5461 5462 5462 5447 5442 5457 5460 5468 5481 5485 5500 5506 5512 5517 5511 5515 5514 5531 5546 5552 5558 5567 5571 5573 5577 5578 5578 5585
5564 5561 5556 5553 5545 5539 5534 5526 5518 5508 5500 5493 5489 5485 5482 5482 5474 5469 5469 5467 5466 5467 5431 5453 5461 5466 5478 5489 5490 5504 5511 5518 5515 5517 5528 5511 5528 5537 5545 5554 5565 5561 5568 5570 5566 5565 5565
5566 5563 5560 5556 5551 5545 5540 5534 5526 5518 5509 5501 5496 5493 5490 5485 5481 5477 5475 5474 5474 5458 5452 5461 5464 5474 5486 5498 5500 5509 5517 5519 5518 5518 5517 5517 5531 5537 5545 5547 5556 5557 5559 5551 5548 5555 5566
5568 5565 5563 5561 5557 5551 5546 5541 5535 5529 5521 5512 5505 5500 5496 5491 5487 5484 5480 5478 5473 5447 5445 5464 5473 5485 5500 5500 5508 5512 5509 5505 5510 5500 5490 5511 5518 5535 5546 5546 5553 5552 5544 5528 5557 5547 5572
5571 5568 5566 5564 5561 5557 5553 5548 5543 5538 5532 5526 5517 5510 5503 5496 5492 5491 5486 5481 5462 5466 5473 5472 5486 5498 5503 5507 5508 5511 5514 5505 5511 5508 5483 5486 5489 5531 5543 5550 5551 5544 5550 5535 5563 5560 5559
5573 5570 5568 5567 5564 5561 5558 5555 5551 5547 5541 5535 5528 5520 5511 5505 5501 5497 5495 5470 5458 5474 5478 5487 5502 5501 5500 5513 5516 5513 5510 5509 5516 5521 5517 5499 5502 5534 5541 5551 5555 5548 5544 5546 5527 5517 5540
5575 5573 5570 5568 5567 5565 5563 5561 5558 5555 5550 5543 5534 5527 5522 5516 5511 5507 5501 5487 5487 5492 5497 5505 5514 5518 5512 5515 5515 5516 5516 5520 5522 5526 5527 5519 5516 5538 5545 5552 5551 5557 5545 5548 5529 5545 5564
5576 5575 5572 5570 5569 5568 5567 5567 5565 5563 5558 5550 5541 5539 5537 5530 5524 5520 5486 5499 5510 5511 5512 5515 5519 5521 5522 5524 5519 5518 5518 5523 5527 5528 5528 5525 5530 5536 5544 5544 5544 5544 5544 5534 5536 5537 5554
5578 5576 5574 5572 5571 5570 5570 5570 5569 5567 5562 5556 5546 5543 5543 5539 5527 5500 5494 5521 5529 5528 5526 5531 5534 5533 5527 5520 5518 5517 5520 5527 5531 5533 5536 5534 5521 5512 5540 5540 5543 5547 5545 5541 5548 5539 5527
5579 5578 5576 5574 5573 5572 5572 5573 5573 5572 5569 5560 5556 5550 5550 5546 5524 5503 5530 5537 5536 5539 5539 5540 5540 5540 5537 5533 5529 5525 5528 5530 5534 5539 5537 5539 5526 5509 5530 5539 5540 5545 5541 5541 5533 5533 5531
5578 5578 5577 5575 5575 5574 5574 5576 5579 5581 5577 5569 5559 5551 5554 5543 5533 5543 5547 5542 5544 5543 5545 5546 5546 5546 5546 5541 5531 5530 5532 5534 5538 5540 5543 5543 5528 5544 5546 5560 5546 5545 5545 5541 5551 5532 5541
5575 5576 5576 5575 5575 5575 5575 5576 5580 5583 5578 5572 5556 5549 5549 5540 5552 5549 5552 5556 5554 5551 5548 5545 5548 5545 5549 5546 5543 5536 5537 5538 5538 5544 5538 5539 5541 5523 5537 5540 5550 5557 5558 5544 5549 5557 5563
5573 5573 5573 5573 5573 5573 5575 5575 5577 5579 5577 5568 5567 5564 5547 5547 5549 5560 5555 5559 5559 5558 5559 5557 5553 5550 5551 5548 5552 5543 5540 5539 5547 5540 5541 5529 5534 5530 5512 5543 5536 5542 5546 5549 5553 5561 5555
5569 5570 5570 5569 5571 5571 5572 5574 5575 5577 5575 5567 5557 5558 5564 5548 5553 5559 5559 5564 5565 5563 5561 5561 5558 5552 5557 5553 5549 5543 5540 5537 5545 5542 5535 5535 5530 5524 5539 5532 5540 5556 5555 5555 5557 5558 5572
5564 5565 5566 5566 5567 5569 5569 5570 5572 5574 5574 5570 5562 5560 5564 5567 5552 5559 5569 5568 5567 5564 5568 5562 5561 5564 5552 5544 5542 5542 5534 5533 5535 5529 5534 5531 5531 5518 5513 5535 5553 5588 5571 5568 5568 5571 5566
5559 5561 5562 5563 5563 5564 5566 5566 5568 5570 5571 5567 5560 5562 5559 5564 5551 5563 5566 5569 5566 5561 5562 5563 5560 5552 5550 5551 5542 5543 5534 5549 5532 5522 5538 5532 5529 5517 5511 5515 5557 5587 5579 5571 5577 5588 5572
5554 5556 5557 5558 5559 5559 5561 5561 5563 5565 5566 5564 5557 5558 5557 5556 5561 5569 5563 5566 5557 5553 5554 5559 5554 5550 5550 5538 5546 5557 5552 5552 5540 5536 5523 5525 5524 5525 5512 5539 5581 5587 5584 5575 5575 5577 5580
5548 5550 5551 5552 5553 5555 5555 5556 5556 5559 5561 5560 5554 5555 5556 5555 5554 5561 5560 5558 5551 5547 5548 5548 5555 5553 5548 5539 5549 5543 5534 5542 5543 5534 5525 5523 5517 5521 5519 5521 5544 5564 5571 5568 5580 5576 5573
5543 5544 5545 5546 5547 5549 5550 5550 5550 5552 5555 5556 5550 5550 5552 5549 5551 5556 5559 5556 5550 5548 5552 5546 5548 5543 5534 5544 5541 5537 5536 5530 5537 5533 5526 5524 5518 5515 5519 5518 5541 5558 5565 5576 5567 5561 5562
5538 5538 5540 5540 5542 5542 5544 5544 5544 5545 5548 5550 5546 5545 5546 5547 5549 5544 5548 5548 5549 5552 5545 5538 5548 5543 5542 5533 5524 5522 5534 5510 5525 5550 5523 5535 5544 5538 5536 5547 5559 5559 5568 5558 5553 5551 5550